| time (UTC) | temp C | wind direction | speed KPH | gust KPH | rain 1hr cm | rain 24hr cm | rain mn cm | humidity % | barometer mb |
| 20260507192008 | 26 | 136 | 11.3 | 32.2 | 0.00 | 0.00 | 0.00 | 28 | 1016.5 |
| 20260507191512 | 26 | 111 | 14.5 | 33.8 | 0.00 | 0.00 | 0.00 | 28 | 1016.5 |
| 20260507191014 | 26 | 142 | 11.3 | 33.8 | 0.00 | 0.00 | 0.00 | 27 | 1016.6 |
| 20260507190517 | 26 | 116 | 16.1 | 29.0 | 0.00 | 0.00 | 0.00 | 29 | 1016.7 |
| 20260507190020 | 26 | 103 | 6.4 | 30.6 | 0.00 | 0.00 | 0.00 | 28 | 1016.8 |
| 20260507185525 | 26 | 121 | 20.9 | 30.6 | 0.00 | 0.00 | 0.00 | 27 | 1016.8 |
| 20260507185026 | 26 | 103 | 16.1 | 29.0 | 0.00 | 0.00 | 0.00 | 31 | 1016.8 |
| 20260507184530 | 26 | 113 | 11.3 | 24.1 | 0.00 | 0.00 | 0.00 | 28 | 1016.8 |
| 20260507184032 | 26 | 128 | 14.5 | 24.1 | 0.00 | 0.00 | 0.00 | 30 | 1016.8 |
| 20260507183536 | 25 | 103 | 14.5 | 30.6 | 0.00 | 0.00 | 0.00 | 32 | 1017.0 |
| 20260507183038 | 26 | 69 | 12.9 | 33.8 | 0.00 | 0.00 | 0.00 | 30 | 1017.0 |
| 20260507182542 | 26 | 105 | 20.9 | 33.8 | 0.00 | 0.00 | 0.00 | 30 | 1017.1 |
| 20260507182044 | 26 | 109 | 19.3 | 25.7 | 0.00 | 0.00 | 0.00 | 31 | 1017.3 |
| 20260507181548 | 26 | 102 | 12.9 | 24.1 | 0.00 | 0.00 | 0.00 | 30 | 1017.3 |
| 20260507181051 | 25 | 97 | 16.1 | 25.7 | 0.00 | 0.00 | 0.00 | 30 | 1017.3 |
| 20260507180554 | 25 | 86 | 9.7 | 25.7 | 0.00 | 0.00 | 0.00 | 32 | 1017.3 |
| 20260507180056 | 25 | 97 | 11.3 | 24.1 | 0.00 | 0.00 | 0.00 | 32 | 1017.4 |
| 20260507175559 | 25 | 41 | 4.8 | 29.0 | 0.00 | 0.00 | 0.00 | 29 | 1017.4 |
| 20260507175102 | 25 | 92 | 17.7 | 33.8 | 0.00 | 0.00 | 0.00 | 30 | 1017.5 |
| 20260507174605 | 25 | 102 | 22.5 | 33.8 | 0.00 | 0.00 | 0.00 | 30 | 1016.6 |
| 20260507174108 | 25 | 75 | 11.3 | 37.0 | 0.00 | 0.00 | 0.00 | 31 | 1016.6 |
| 20260507173611 | 25 | 83 | 17.7 | 37.0 | 0.00 | 0.00 | 0.00 | 31 | 1016.6 |
| 20260507173114 | 25 | 59 | 14.5 | 29.0 | 0.00 | 0.00 | 0.00 | 30 | 1016.6 |
| 20260507172617 | 25 | 95 | 12.9 | 38.6 | 0.00 | 0.00 | 0.00 | 33 | 1016.7 |
| 20260507172120 | 25 | 109 | 20.9 | 38.6 | 0.00 | 0.00 | 0.00 | 30 | 1016.7 |
| 20260507171623 | 25 | 101 | 9.7 | 33.8 | 0.00 | 0.00 | 0.00 | 32 | 1016.7 |
| 20260507171126 | 25 | 91 | 19.3 | 33.8 | 0.00 | 0.00 | 0.00 | 32 | 1016.7 |
| 20260507170629 | 25 | 76 | 8.0 | 24.1 | 0.00 | 0.00 | 0.00 | 33 | 1016.7 |
| 20260507170132 | 25 | 95 | 16.1 | 24.1 | 0.00 | 0.00 | 0.00 | 32 | 1016.8 |
| 20260507165636 | 24 | 100 | 12.9 | 24.1 | 0.00 | 0.00 | 0.00 | 33 | 1016.8 |
| 20260507165139 | 24 | 94 | 11.3 | 19.3 | 0.00 | 0.00 | 0.00 | 33 | 1016.8 |
| 20260507164641 | 24 | 81 | 11.3 | 19.3 | 0.00 | 0.00 | 0.00 | 34 | 1016.9 |
| 20260507164144 | 24 | 81 | 9.7 | 20.9 | 0.00 | 0.00 | 0.00 | 34 | 1016.9 |
| 20260507163648 | 24 | 87 | 11.3 | 20.9 | 0.00 | 0.00 | 0.00 | 33 | 1017.0 |
| 20260507163150 | 24 | 94 | 9.7 | 17.7 | 0.00 | 0.00 | 0.00 | 34 | 1016.9 |
| 20260507162653 | 24 | 91 | 8.0 | 17.7 | 0.00 | 0.00 | 0.00 | 33 | 1017.1 |
| 20260507162156 | 23 | 73 | 4.8 | 11.3 | 0.00 | 0.00 | 0.00 | 35 | 1017.1 |
| 20260507161700 | 23 | 80 | 6.4 | 19.3 | 0.00 | 0.00 | 0.00 | 34 | 1017.0 |
| 20260507161202 | 23 | 96 | 9.7 | 19.3 | 0.00 | 0.00 | 0.00 | 36 | 1017.1 |
| 20260507160705 | 23 | 66 | 9.7 | 14.5 | 0.00 | 0.00 | 0.00 | 34 | 1017.1 |
| 20260507154221 | 22 | 100 | 4.8 | 12.9 | 0.00 | 0.00 | 0.00 | 38 | 1017.1 |
| 20260507153227 | 22 | 96 | 1.6 | 11.3 | 0.00 | 0.00 | 0.00 | 39 | 1017.2 |
| 20260507152233 | 22 | 58 | 6.4 | 9.7 | 0.00 | 0.00 | 0.00 | 37 | 1017.1 |
| 20260507151736 | 22 | 56 | 6.4 | 11.3 | 0.00 | 0.00 | 0.00 | 37 | 1017.2 |
| 20260507150742 | 21 | 61 | 6.4 | 9.7 | 0.00 | 0.00 | 0.00 | 41 | 1016.3 |
| 20260507150244 | 21 | 51 | 4.8 | 8.0 | 0.00 | 0.00 | 0.00 | 40 | 1016.3 |
| 20260507145747 | 21 | 79 | 1.6 | 4.8 | 0.00 | 0.00 | 0.00 | 43 | 1016.3 |
| 20260507145250 | 20 | 0 | 0.0 | 8.0 | 0.00 | 0.00 | 0.00 | 42 | 1016.3 |
| 20260507144753 | 19 | 60 | 3.2 | 8.0 | 0.00 | 0.00 | 0.00 | 48 | 1016.3 |
| 20260507134830 | 15 | 0 | 0.0 | 1.6 | 0.00 | 0.00 | 0.00 | 47 | 1016.4 |
| 20260507134333 | 14 | 0 | 0.0 | 1.6 | 0.00 | 0.00 | 0.00 | 46 | 1016.5 |
| 20260507133339 | 13 | 0 | 0.0 | 3.2 | 0.00 | 0.00 | 0.00 | 46 | 1016.4 |
| 20260507131351 | 13 | 0 | 0.0 | 3.2 | 0.00 | 0.00 | 0.00 | 48 | 1016.2 |
| 20260507125403 | 13 | 0 | 0.0 | 4.8 | 0.00 | 0.00 | 0.00 | 51 | 1016.0 |
| 20260507124906 | 13 | 227 | 3.2 | 6.4 | 0.00 | 0.00 | 0.00 | 50 | 1016.0 |
| 20260507123912 | 13 | 236 | 3.2 | 6.4 | 0.00 | 0.00 | 0.00 | 49 | 1016.0 |
| 20260507122918 | 13 | 0 | 0.0 | 0.0 | 0.00 | 0.00 | 0.00 | 49 | 1015.9 |
| 20260507121427 | 14 | 0 | 0.0 | 0.0 | 0.00 | 0.00 | 0.00 | 48 | 1015.9 |
| 20260507115439 | 14 | 0 | 0.0 | 0.0 | 0.00 | 0.00 | 0.00 | 48 | 1016.0 |
| 20260507114445 | 14 | 0 | 0.0 | 0.0 | 0.00 | 0.00 | 0.00 | 47 | 1015.2 |
| 20260507113948 | 15 | 0 | 0.0 | 0.0 | 0.00 | 0.00 | 0.00 | 47 | 1015.2 |
| 20260507112457 | 14 | 0 | 0.0 | 4.8 | 0.00 | 0.00 | 0.00 | 49 | 1015.3 |
| 20260507112000 | 14 | 311 | 1.6 | 3.2 | 0.00 | 0.00 | 0.00 | 49 | 1015.4 |
| 20260507111006 | 14 | 311 | 1.6 | 3.2 | 0.00 | 0.00 | 0.00 | 50 | 1015.3 |
| 20260507110012 | 13 | 304 | 1.6 | 6.4 | 0.00 | 0.00 | 0.00 | 51 | 1015.4 |
| 20260507105018 | 13 | 253 | 4.8 | 8.0 | 0.00 | 0.00 | 0.00 | 52 | 1015.4 |
| 20260507104521 | 13 | 0 | 0.0 | 4.8 | 0.00 | 0.00 | 0.00 | 51 | 1015.4 |
| 20260507103030 | 13 | 0 | 0.0 | 0.0 | 0.00 | 0.00 | 0.00 | 53 | 1015.4 |
| 20260507102533 | 13 | 0 | 0.0 | 0.0 | 0.00 | 0.00 | 0.00 | 53 | 1015.5 |
| 20260507102036 | 13 | 0 | 0.0 | 1.6 | 0.00 | 0.00 | 0.00 | 54 | 1015.5 |
| 20260507101042 | 13 | 0 | 0.0 | 3.2 | 0.00 | 0.00 | 0.00 | 55 | 1015.6 |
| 20260507100048 | 13 | 0 | 0.0 | 1.6 | 0.00 | 0.00 | 0.00 | 56 | 1015.6 |
| 20260507095551 | 13 | 0 | 0.0 | 3.2 | 0.00 | 0.00 | 0.00 | 55 | 1015.7 |
| 20260507093603 | 12 | 0 | 0.0 | 4.8 | 0.00 | 0.00 | 0.00 | 60 | 1015.9 |
| 20260507093106 | 12 | 0 | 0.0 | 4.8 | 0.00 | 0.00 | 0.00 | 61 | 1016.1 |
| 20260507092609 | 12 | 0 | 0.0 | 6.4 | 0.00 | 0.00 | 0.00 | 61 | 1016.0 |
| 20260507091118 | 13 | 323 | 4.8 | 9.7 | 0.00 | 0.00 | 0.00 | 61 | 1016.1 |
| 20260507090621 | 13 | 294 | 4.8 | 9.7 | 0.00 | 0.00 | 0.00 | 61 | 1016.2 |
| 20260507085627 | 13 | 291 | 4.8 | 8.0 | 0.00 | 0.00 | 0.00 | 60 | 1016.3 |
| 20260507085130 | 13 | 294 | 1.6 | 8.0 | 0.00 | 0.00 | 0.00 | 60 | 1016.4 |
| 20260507084633 | 13 | 296 | 3.2 | 9.7 | 0.00 | 0.00 | 0.00 | 60 | 1016.5 |
| 20260507084136 | 13 | 293 | 6.4 | 9.7 | 0.00 | 0.00 | 0.00 | 60 | 1016.5 |
| 20260507083639 | 13 | 303 | 4.8 | 11.3 | 0.00 | 0.00 | 0.00 | 60 | 1016.5 |
| 20260507083142 | 13 | 298 | 6.4 | 11.3 | 0.00 | 0.00 | 0.00 | 59 | 1016.5 |
| 20260507081651 | 13 | 292 | 6.4 | 11.3 | 0.00 | 0.00 | 0.00 | 58 | 1016.5 |
| 20260507081154 | 13 | 284 | 8.0 | 11.3 | 0.00 | 0.00 | 0.00 | 58 | 1016.6 |
| 20260507075703 | 13 | 288 | 6.4 | 14.5 | 0.00 | 0.00 | 0.00 | 59 | 1016.7 |
| 20260507075206 | 13 | 281 | 8.0 | 14.5 | 0.00 | 0.00 | 0.00 | 59 | 1016.7 |
| 20260507073715 | 13 | 298 | 6.4 | 14.5 | 0.00 | 0.00 | 0.00 | 61 | 1016.7 |
| 20260507072721 | 13 | 295 | 6.4 | 12.9 | 0.00 | 0.00 | 0.00 | 62 | 1016.6 |
| 20260507071727 | 13 | 287 | 8.0 | 12.9 | 0.00 | 0.00 | 0.00 | 63 | 1016.9 |
| 20260507070733 | 13 | 284 | 9.7 | 14.5 | 0.00 | 0.00 | 0.00 | 63 | 1016.9 |
| 20260507070236 | 13 | 288 | 9.7 | 16.1 | 0.00 | 0.00 | 0.00 | 64 | 1017.0 |
| 20260507065739 | 13 | 286 | 12.9 | 16.1 | 0.00 | 0.00 | 0.00 | 64 | 1016.9 |
| 20260507065242 | 13 | 294 | 8.0 | 16.1 | 0.00 | 0.00 | 0.00 | 64 | 1017.0 |
| 20260507064817 | 13 | 290 | 11.3 | 16.1 | 0.00 | 0.00 | 0.00 | 64 | 1017.0 |
| 20260507064745 | 13 | 290 | 11.3 | 16.1 | 0.00 | 0.00 | 0.00 | 64 | 1017.0 |
| 20260507064248 | 13 | 290 | 11.3 | 16.1 | 0.00 | 0.00 | 0.00 | 65 | 1017.1 |
| 20260507063751 | 13 | 284 | 9.7 | 14.5 | 0.00 | 0.00 | 0.00 | 65 | 1017.1 |
| 20260507063254 | 13 | 282 | 9.7 | 14.5 | 0.00 | 0.00 | 0.00 | 65 | 1016.4 |
| 20260507062757 | 13 | 282 | 9.7 | 14.5 | 0.00 | 0.00 | 0.00 | 65 | 1016.4 |
| 20260507062300 | 13 | 286 | 9.7 | 14.5 | 0.00 | 0.00 | 0.00 | 65 | 1016.3 |
| 20260507061803 | 13 | 288 | 9.7 | 14.5 | 0.00 | 0.00 | 0.00 | 64 | 1016.3 |
| 20260507060809 | 13 | 294 | 9.7 | 14.5 | 0.00 | 0.00 | 0.00 | 65 | 1016.3 |
| 20260507060312 | 13 | 292 | 8.0 | 12.9 | 0.00 | 0.00 | 0.00 | 65 | 1016.4 |
| 20260507055318 | 13 | 282 | 6.4 | 11.3 | 0.00 | 0.00 | 0.00 | 65 | 1016.6 |
| 20260507054821 | 13 | 286 | 4.8 | 14.5 | 0.00 | 0.00 | 0.00 | 65 | 1016.5 |
| 20260507054324 | 13 | 284 | 9.7 | 14.5 | 0.00 | 0.00 | 0.00 | 66 | 1016.4 |
| 20260507053827 | 13 | 286 | 9.7 | 14.5 | 0.00 | 0.00 | 0.00 | 66 | 1016.4 |
| 20260507051342 | 13 | 284 | 9.7 | 14.5 | 0.00 | 0.00 | 0.00 | 69 | 1016.6 |
| 20260507045851 | 13 | 283 | 9.7 | 12.9 | 0.00 | 0.00 | 0.00 | 72 | 1016.6 |
| 20260507045354 | 13 | 283 | 8.0 | 12.9 | 0.00 | 0.00 | 0.00 | 72 | 1016.6 |
| 20260507044857 | 13 | 282 | 9.7 | 12.9 | 0.00 | 0.00 | 0.00 | 72 | 1016.6 |
| 20260507043903 | 13 | 289 | 9.7 | 14.5 | 0.00 | 0.00 | 0.00 | 72 | 1016.6 |
| 20260507043406 | 13 | 290 | 8.0 | 14.5 | 0.00 | 0.00 | 0.00 | 72 | 1016.6 |
| 20260507042412 | 13 | 285 | 9.7 | 16.1 | 0.00 | 0.00 | 0.00 | 73 | 1016.6 |
| 20260507041915 | 13 | 287 | 8.0 | 16.1 | 0.00 | 0.00 | 0.00 | 74 | 1016.6 |
| 20260507041418 | 13 | 288 | 11.3 | 16.1 | 0.00 | 0.00 | 0.00 | 74 | 1016.7 |
| 20260507040424 | 13 | 290 | 8.0 | 16.1 | 0.00 | 0.00 | 0.00 | 76 | 1016.6 |
| 20260507035927 | 13 | 285 | 9.7 | 16.1 | 0.00 | 0.00 | 0.00 | 77 | 1016.5 |
| 20260507034933 | 12 | 280 | 9.7 | 14.5 | 0.00 | 0.00 | 0.00 | 78 | 1016.4 |
| 20260507034436 | 12 | 281 | 9.7 | 16.1 | 0.00 | 0.00 | 0.00 | 78 | 1016.2 |
| 20260507033939 | 12 | 285 | 11.3 | 16.1 | 0.00 | 0.00 | 0.00 | 78 | 1016.2 |
| 20260507032945 | 12 | 289 | 8.0 | 12.9 | 0.00 | 0.00 | 0.00 | 82 | 1016.2 |
| 20260507032448 | 12 | 285 | 8.0 | 11.3 | 0.00 | 0.00 | 0.00 | 82 | 1016.3 |
| 20260507030957 | 12 | 284 | 8.0 | 14.5 | 0.00 | 0.00 | 0.00 | 85 | 1016.2 |
| 20260507030500 | 12 | 284 | 9.7 | 14.5 | 0.00 | 0.00 | 0.00 | 86 | 1016.2 |
| 20260507025506 | 12 | 281 | 9.7 | 14.5 | 0.00 | 0.00 | 0.00 | 87 | 1016.2 |
| 20260507025009 | 12 | 290 | 8.0 | 12.9 | 0.00 | 0.00 | 0.00 | 87 | 1016.3 |
| 20260507024512 | 12 | 290 | 9.7 | 12.9 | 0.00 | 0.00 | 0.00 | 87 | 1016.2 |
| 20260507023021 | 12 | 289 | 6.4 | 19.3 | 0.00 | 0.00 | 0.00 | 85 | 1016.1 |
| 20260507022524 | 13 | 269 | 8.0 | 19.3 | 0.00 | 0.00 | 0.00 | 85 | 1016.0 |
| 20260507022027 | 13 | 273 | 9.7 | 19.3 | 0.00 | 0.00 | 0.00 | 84 | 1016.0 |
| 20260507021033 | 14 | 280 | 9.7 | 19.3 | 0.00 | 0.00 | 0.00 | 81 | 1015.9 |
| 20260507020535 | -17 | 276 | 12.9 | 0.0 | 0.00 | 0.00 | 0.00 | ||
| 20260507020039 | 15 | 293 | 9.7 | 19.3 | 0.00 | 0.00 | 0.00 | 79 | 1015.9 |
| 20260507015542 | 15 | 274 | 11.3 | 20.9 | 0.00 | 0.00 | 0.00 | 78 | 1015.9 |
| 20260507015045 | 15 | 271 | 12.9 | 20.9 | 0.00 | 0.00 | 0.00 | 78 | 1015.8 |
| 20260507014548 | 15 | 280 | 9.7 | 17.7 | 0.00 | 0.00 | 0.00 | 77 | 1015.8 |
| 20260507014051 | 15 | 273 | 11.3 | 17.7 | 0.00 | 0.00 | 0.00 | 76 | 1015.8 |
| 20260507013554 | 16 | 275 | 9.7 | 17.7 | 0.00 | 0.00 | 0.00 | 76 | 1015.9 |
| 20260507013057 | 16 | 284 | 9.7 | 20.9 | 0.00 | 0.00 | 0.00 | 76 | 1015.9 |
| 20260507012644 | 16 | 281 | 11.3 | 24.1 | 0.00 | 0.00 | 0.00 | 75 | 1016.0 |
| 20260507012600 | 16 | 281 | 11.3 | 24.1 | 0.00 | 0.00 | 0.00 | 75 | 1016.0 |
| 20260507012103 | 16 | 269 | 16.1 | 24.1 | 0.00 | 0.00 | 0.00 | 74 | 1016.0 |
| 20260507011650 | 16 | 274 | 14.5 | 20.9 | 0.00 | 0.00 | 0.00 | 73 | 1015.9 |
| 20260507011606 | 16 | 274 | 14.5 | 20.9 | 0.00 | 0.00 | 0.00 | 73 | 1015.9 |
| 20260507011109 | 16 | 263 | 12.9 | 20.9 | 0.00 | 0.00 | 0.00 | 72 | 1016.0 |
| 20260507010612 | 16 | 278 | 9.7 | 20.9 | 0.00 | 0.00 | 0.00 | 73 | 1016.0 |
| 20260507005121 | 17 | 277 | 14.5 | 24.1 | 0.00 | 0.00 | 0.00 | 70 | 1015.2 |
| 20260507004659 | 17 | 275 | 16.1 | 24.1 | 0.00 | 0.00 | 0.00 | 68 | 1015.2 |
| 20260507004624 | 17 | 275 | 16.1 | 24.1 | 0.00 | 0.00 | 0.00 | 68 | 1015.2 |
| 20260507003133 | 17 | 272 | 12.9 | 20.9 | 0.00 | 0.00 | 0.00 | 66 | 1015.3 |
| 20260507001220 | 17 | 263 | 11.3 | 22.5 | 0.00 | 0.00 | 0.00 | 67 | 1015.3 |
| 20260507001145 | 17 | 263 | 11.3 | 22.5 | 0.00 | 0.00 | 0.00 | 67 | 1015.3 |
| 20260506235654 | 17 | 248 | 14.5 | 22.5 | 0.00 | 0.00 | 0.00 | 65 | 1015.2 |
| 20260506232712 | 18 | 277 | 16.1 | 27.4 | 0.00 | 0.00 | 0.00 | 64 | 1015.1 |
| 20260506225730 | 18 | 286 | 16.1 | 20.9 | 0.00 | 0.00 | 0.00 | 59 | 1015.3 |
| 20260506224736 | 19 | 277 | 9.7 | 22.5 | 0.00 | 0.00 | 0.00 | 60 | 1015.5 |
| 20260506223742 | 18 | 261 | 11.3 | 17.7 | 0.00 | 0.00 | 0.00 | 58 | 1015.6 |
| 20260506223245 | 18 | 292 | 6.4 | 19.3 | 0.00 | 0.00 | 0.00 | 62 | |
| 20260506222251 | 18 | 280 | 16.1 | 27.4 | 0.00 | 0.00 | 0.00 | 61 | 1015.8 |
| 20260506221257 | 18 | 280 | 11.3 | 24.1 | 0.00 | 0.00 | 0.00 | 60 | 1015.9 |
| 20260506220303 | 18 | 280 | 14.5 | 22.5 | 0.00 | 0.00 | 0.00 | 61 | 1016.0 |
| 20260506214812 | 18 | 281 | 12.9 | 19.3 | 0.00 | 0.00 | 0.00 | 60 | 1015.4 |
| 20260506212824 | 18 | 253 | 8.0 | 20.9 | 0.00 | 0.00 | 0.00 | 61 | 1015.6 |
| 20260506212327 | 18 | 268 | 11.3 | 0.0 | 0.00 | 0.00 | 0.00 | 63 | 1015.5 |
| 20260506210836 | 17 | 298 | 9.7 | 991.4 | 0.00 | 0.00 | 0.00 | 61 | 1015.8 |
| 20260506203854 | 18 | 282 | 11.3 | 17.7 | 0.00 | 0.00 | 0.00 | 63 | 1015.9 |
| 20260506195421 | 17 | 334 | 3.2 | 16.1 | 0.00 | 0.00 | 0.00 | 58 | 1016.5 |
| 20260506193433 | 17 | 325 | 8.0 | 14.5 | 0.00 | 0.00 | 0.00 | 63 | 1016.6 |